Torna al catalogo

SL-8 R/B

AttivoPO
NORAD 6829·ROCKET BODY·🇷🇺 Russia

Lanciato Sep 14, 1973 da Plesetsk Cosmodrome

Loading…

Prossimi Passaggi (prossime 24 ore)

TLE

AggiornatoSource: Space-Track

Epoca: Sep 14, 2026, 09:51 UTC

1 06829U 73065B   26257.41098919  .00000049  00000-0  33753-4 0  9997
2 06829  82.9398  53.9642 0023801 139.0110 249.8039 13.77467578662615

Traccia SL-8 R/B in tempo reale con AllMySat

Download on the App Store